This is the latest recevied weather packets stored in our database for station/object WE0DX-1. If no packets are shown the sender has not sent any weather packets the latest 10 day(s).
| Time | Temp. | Humidity | Pressure | Rain* | Wind** | Luminosity | Snow |
|---|---|---|---|---|---|---|---|
| 1778108783 | 15° C | 34% | 1016.6 hPa | 0 mm | - | 60 W/m² | - |
| 1778108481 | 15° C | 34% | 1016.4 hPa | 0 mm | - | 28 W/m² | - |
| 1778108177 | 15° C | 34% | 1016.1 hPa | 0 mm | - | 44 W/m² | - |
| 1778107873 | 15° C | 34% | 1016.5 hPa | 0 mm | - | 47 W/m² | - |
| 1778107570 | 15° C | 35% | 1016.5 hPa | 0 mm | - | 30 W/m² | - |
| 1778107267 | 15° C | 34% | 1016.3 hPa | 0 mm | - | 36 W/m² | - |
| 1778106963 | 15° C | 35% | 1016.5 hPa | 0 mm | - | 32 W/m² | - |
| 1778106659 | 15° C | 33% | 1016.5 hPa | 0 mm | - | 35 W/m² | - |
| 1778106356 | 15° C | 33% | 1016.5 hPa | 0 mm | - | 35 W/m² | - |
| 1778106052 | 15° C | 34% | 1016.7 hPa | 0 mm | - | 52 W/m² | - |
| 1778105750 | 15° C | 33% | 1016.6 hPa | 0 mm | - | 42 W/m² | - |
| 1778105448 | 15° C | 34% | 1016.9 hPa | 0 mm | - | 50 W/m² | - |
| 1778105144 | 15° C | 34% | 1016.4 hPa | 0 mm | - | 46 W/m² | - |
| 1778104839 | 15° C | 34% | 1016.5 hPa | 0 mm | - | 134 W/m² | - |
| 1778104537 | 15° C | 35% | 1016.5 hPa | 0 mm | - | 157 W/m² | - |
| 1778104232 | 15° C | 34% | 1016.8 hPa | 0 mm | - | 52 W/m² | - |
| 1778103929 | 15° C | 33% | 1016.8 hPa | 0 mm | - | 184 W/m² | - |
| 1778103626 | 15° C | 34% | 1016.7 hPa | 0 mm | - | 44 W/m² | - |
| 1778103325 | 15° C | 32% | 1017 hPa | 0 mm | - | 48 W/m² | - |
| 1778103021 | 15° C | 33% | 1016.8 hPa | 0 mm | - | 194 W/m² | - |
| 1778102718 | 15° C | 34% | 1016.9 hPa | 0 mm | - | 131 W/m² | - |
| 1778102413 | 15° C | 34% | 1016.9 hPa | 0 mm | - | 81 W/m² | - |
| 1778102109 | 15.56° C | 33% | 1017 hPa | 0 mm | - | 44 W/m² | - |
| 1778101807 | 15° C | 34% | 1017.2 hPa | 0 mm | - | 266 W/m² | - |
| 1778101502 | 15° C | 33% | 1017.3 hPa | 0 mm | - | 347 W/m² | - |
* Rain latest hour (hover to see other rain measurements)
** Current wind speed in m/s (hover to see current wind gust speed)